Location: Monfort
(47.1967°N, 0.2115°W)
Time: 11:57:54
(UTC+00:00)

Cosmos 1110 Rocket - Pass Details

Date: 24 October 2020
Orbit: 753 x 780 km, 74.0° (Epoch: 28 November)

Event Time Altitude Azimuth Distance (km) Brightness Sun altitude
Rises 18:17:22 0° 205° (SSW) 3,233 7.6 -14.3°
Reaches altitude 10° 18:19:44 10° 206° (SSW) 2,307 6.9 -14.7°
Maximum altitude 18:24:59 77° 293° (WNW) 790 4.1 -15.6°
Drops below altitude 10° 18:30:13 10° 20° (NNE) 2,305 6.3 -16.5°
Sets 18:32:36 0° 22° (NNE) 3,231 7.0 -16.9°
